Orbital Elements at Epoch 2459200.5 (2020-Dec-17.0) TDB
Reference: JPL 17 (heliocentric ecliptic J2000)
Element | Value | Uncertainty (1-sigma) | Units |
e | .06872954615361475 | 4.6785e-08 | |
a | 3.128476955478151 | 2.8637e-08 | au |
q | 2.913458154176095 | 1.6169e-07 | au |
i | 10.61434032450692 | 4.034e-06 | deg |
node | 146.6022324497973 | 2.7599e-05 | deg |
peri | 133.103951788287 | 5.0417e-05 | deg |
M | .6296928147784587 | 3.9598e-05 | deg |
tp | 2459196.964717656086 (2020-Dec-13.46471766) | 0.00022233 | TDB |
period | 2021.146841665577 5.53 | 2.7751e-05 7.598e-08 | d yr |
n | .178116697203125 | 2.4456e-09 | deg/d |
Q | 3.343495756780207 | 3.0605e-08 | au |
|
| | Orbit Determination Parameters
Additional Information
|